When you browse on this site, cookies collect data to enhance your experience and personalize the content and advertising you see.
Visit our Privacy Policy to learn more. By continuing to use the site, you agree to this use of cookies and data.
  • en Suisse
  • Liste des pays
  • À 7 jours
  • Température de l'eau
  • Carte satellitaire
  • Carte météo
  • Widgets météo
  • user-avatar
    Se connecter

    Météo par heure à Borovoe

    Ce jour, 20 Février, Mercredi

    Heure Température Précipitation Vent Pression Humidité
    00:00 -8°C° 0 mm 5 m/s 748 mmHg 87%
    01:00 -8°C° 0 mm 5 m/s 747 mmHg 86%
    02:00 -8°C° 0 mm 5 m/s 747 mmHg 85%
    03:00 -10°C° 0 mm 5 m/s 746 mmHg 84%
    04:00 -10°C° 0 mm 5 m/s 746 mmHg 84%
    05:00 -10°C° 0 mm 6 m/s 745 mmHg 84%
    06:00 -10°C° 0 mm 6 m/s 745 mmHg 85%
    07:00 -10°C° 0 mm 6 m/s 744 mmHg 86%
    08:00 -9°C° 0 mm 6 m/s 744 mmHg 88%
    09:00 -8°C° 0 mm 6 m/s 743 mmHg 89%
    10:00 -6°C° 0.1 mm 6 m/s 743 mmHg 89%
    11:00 -5°C° 0.1 mm 6 m/s 743 mmHg 89%
    12:00 -4°C° 0.1 mm 6 m/s 742 mmHg 89%
    13:00 -4°C° 0.1 mm 6 m/s 742 mmHg 88%
    14:00 -3°C° 0.1 mm 6 m/s 742 mmHg 88%
    15:00 -3°C° 0.1 mm 6 m/s 741 mmHg 88%
    16:00 -3°C° 0.1 mm 6 m/s 741 mmHg 89%
    17:00 -3°C° 0.1 mm 6 m/s 741 mmHg 90%
    18:00 -3°C° 0.1 mm 6 m/s 741 mmHg 91%
    19:00 -2°C° 0 mm 6 m/s 741 mmHg 91%
    20:00 -2°C° 0 mm 6 m/s 741 mmHg 91%
    21:00 -1°C° 0 mm 5 m/s 740 mmHg 92%
    22:00 -1°C° 0.1 mm 5 m/s 740 mmHg 91%
    23:00 -1°C° 0.1 mm 5 m/s 740 mmHg 91%

    Demain, 21 Février, Jeudi

    Heure Température Précipitation Vent Pression Humidité
    00:00 -1°C° 0.1 mm 5 m/s 739 mmHg 91%
    01:00 -1°C° 0 mm 5 m/s 739 mmHg 91%
    02:00 -1°C° 0 mm 5 m/s 738 mmHg 90%
    03:00 -1°C° 0 mm 5 m/s 738 mmHg 90%
    04:00 -1°C° 0.2 mm 5 m/s 737 mmHg 90%
    05:00 -2°C° 0.2 mm 5 m/s 737 mmHg 91%
    06:00 -2°C° 0.2 mm 5 m/s 736 mmHg 91%
    07:00 -2°C° 0.3 mm 5 m/s 736 mmHg 92%
    08:00 -2°C° 0.3 mm 5 m/s 736 mmHg 92%
    09:00 -2°C° 0.3 mm 5 m/s 736 mmHg 93%
    10:00 -2°C° 0.4 mm 5 m/s 736 mmHg 92%
    11:00 -2°C° 0.4 mm 5 m/s 736 mmHg 91%
    12:00 -4°C° 0.4 mm 5 m/s 736 mmHg 91%
    13:00 -4°C° 0 mm 5 m/s 736 mmHg 89%
    14:00 -3°C° 0 mm 4 m/s 736 mmHg 88%
    15:00 -4°C° 0 mm 4 m/s 736 mmHg 86%
    16:00 -4°C° 0.1 mm 3 m/s 736 mmHg 88%
    17:00 -4°C° 0.1 mm 2 m/s 736 mmHg 90%
    18:00 -5°C° 0.1 mm 2 m/s 736 mmHg 92%
    19:00 -5°C° 0.1 mm 2 m/s 736 mmHg 93%
    20:00 -6°C° 0.1 mm 2 m/s 736 mmHg 95%
    21:00 -6°C° 0.1 mm 2 m/s 737 mmHg 96%
    22:00 -8°C° 0.5 mm 4 m/s 737 mmHg 93%
    23:00 -8°C° 0.5 mm 5 m/s 737 mmHg 90%

    Après-demain, 22 Février, Vendredi

    Heure Température Précipitation Vent Pression Humidité
    00:00 -9°C° 0.5 mm 7 m/s 738 mmHg 88%
    01:00 -11°C° 0.2 mm 7 m/s 738 mmHg 88%
    02:00 -12°C° 0.2 mm 7 m/s 738 mmHg 88%
    03:00 -12°C° 0.2 mm 7 m/s 739 mmHg 87%
    04:00 -13°C° 0.1 mm 7 m/s 739 mmHg 87%
    05:00 -13°C° 0.1 mm 7 m/s 740 mmHg 87%
    06:00 -14°C° 0.1 mm 6 m/s 740 mmHg 87%
    07:00 -14°C° 0.1 mm 6 m/s 741 mmHg 87%
    08:00 -15°C° 0.1 mm 7 m/s 741 mmHg 86%
    09:00 -15°C° 0.1 mm 7 m/s 742 mmHg 85%
    10:00 -15°C° 0.1 mm 7 m/s 742 mmHg 84%
    11:00 -15°C° 0.1 mm 6 m/s 743 mmHg 83%
    12:00 -15°C° 0.1 mm 6 m/s 743 mmHg 82%
    13:00 -15°C° 0.1 mm 6 m/s 744 mmHg 82%
    14:00 -15°C° 0.1 mm 6 m/s 744 mmHg 82%
    15:00 -13°C° 0.1 mm 5 m/s 745 mmHg 82%
    16:00 -14°C° 0.1 mm 5 m/s 746 mmHg 84%
    17:00 -14°C° 0.1 mm 4 m/s 746 mmHg 86%
    18:00 -15°C° 0.1 mm 4 m/s 747 mmHg 88%
    19:00 -15°C° 0 mm 4 m/s 747 mmHg 89%
    20:00 -15°C° 0 mm 4 m/s 748 mmHg 89%
    21:00 -15°C° 0 mm 3 m/s 749 mmHg 90%
    22:00 -15°C° 0 mm 3 m/s 749 mmHg 90%
    23:00 -15°C° 0 mm 3 m/s 750 mmHg 91%

    23 Février, Samedi

    Heure Température Précipitation Vent Pression Humidité
    00:00 -15°C° 0 mm 3 m/s 750 mmHg 91%
    01:00 -15°C° 0 mm 3 m/s 751 mmHg 91%
    02:00 -16°C° 0 mm 4 m/s 751 mmHg 91%
    03:00 -15°C° 0 mm 4 m/s 752 mmHg 92%
    04:00 -15°C° 0.1 mm 4 m/s 752 mmHg 91%
    05:00 -15°C° 0.1 mm 4 m/s 753 mmHg 91%
    06:00 -15°C° 0.1 mm 4 m/s 753 mmHg 91%
    07:00 -15°C° 0.1 mm 4 m/s 754 mmHg 91%
    08:00 -15°C° 0.1 mm 4 m/s 754 mmHg 90%
    09:00 -15°C° 0.1 mm 4 m/s 755 mmHg 90%
    10:00 -15°C° 0 mm 4 m/s 755 mmHg 89%
    11:00 -15°C° 0 mm 4 m/s 755 mmHg 88%
    12:00 -13°C° 0 mm 3 m/s 756 mmHg 86%
    13:00 -13°C° 0 mm 3 m/s 756 mmHg 86%
    14:00 -13°C° 0 mm 3 m/s 756 mmHg 85%
    15:00 -13°C° 0 mm 3 m/s 756 mmHg 85%
    16:00 -12°C° 0 mm 2 m/s 757 mmHg 87%
    17:00 -13°C° 0 mm 2 m/s 757 mmHg 89%
    18:00 -12°C° 0 mm 1 m/s 757 mmHg 92%
    19:00 -12°C° 0 mm 1 m/s 757 mmHg 93%
    20:00 -13°C° 0 mm 1 m/s 757 mmHg 94%
    21:00 -13°C° 0 mm 1 m/s 758 mmHg 95%
    22:00 -13°C° 0 mm 1 m/s 758 mmHg 95%
    23:00 -14°C° 0 mm 1 m/s 758 mmHg 96%

    24 Février, Dimanche

    Heure Température Précipitation Vent Pression Humidité
    00:00 -14°C° 0 mm 1 m/s 758 mmHg 96%
    01:00 -15°C° 0 mm 1 m/s 758 mmHg 96%
    02:00 -15°C° 0 mm 1 m/s 759 mmHg 96%
    03:00 -15°C° 0 mm 1 m/s 759 mmHg 96%
    04:00 -15°C° 0 mm 1 m/s 759 mmHg 96%
    05:00 -15°C° 0 mm 1 m/s 759 mmHg 96%
    06:00 -15°C° 0 mm 1 m/s 759 mmHg 96%
    07:00 -14°C° 0 mm 1 m/s 760 mmHg 96%
    08:00 -13°C° 0 mm 1 m/s 760 mmHg 95%
    09:00 -13°C° 0 mm 1 m/s 760 mmHg 95%
    10:00 -14°C° 0 mm 2 m/s 761 mmHg 93%
    11:00 -13°C° 0 mm 2 m/s 761 mmHg 91%
    12:00 -10°C° 0 mm 2 m/s 761 mmHg 89%
    13:00 -10°C° 0 mm 2 m/s 761 mmHg 89%
    14:00 -12°C° 0 mm 3 m/s 761 mmHg 89%
    15:00 -10°C° 0 mm 3 m/s 761 mmHg 90%
    16:00 -10°C° 0 mm 3 m/s 761 mmHg 90%
    17:00 -9°C° 0 mm 2 m/s 761 mmHg 91%
    18:00 -10°C° 0 mm 2 m/s 761 mmHg 92%
    19:00 -10°C° 0 mm 2 m/s 761 mmHg 92%
    20:00 -10°C° 0 mm 2 m/s 761 mmHg 93%
    21:00 -12°C° 0 mm 2 m/s 761 mmHg 94%
    22:00 -13°C° 0 mm 2 m/s 761 mmHg 94%
    23:00 -14°C° 0 mm 2 m/s 761 mmHg 95%

    25 Février, Lundi

    Heure Température Précipitation Vent Pression Humidité
    00:00 -15°C° 0 mm 2 m/s 761 mmHg 96%
    01:00 -15°C° 0 mm 2 m/s 761 mmHg 96%
    02:00 -15°C° 0 mm 2 m/s 761 mmHg 96%
    03:00 -16°C° 0 mm 2 m/s 761 mmHg 96%
    04:00 -16°C° 0 mm 2 m/s 760 mmHg 96%
    05:00 -16°C° 0 mm 2 m/s 760 mmHg 96%
    06:00 -14°C° 0 mm 1 m/s 760 mmHg 96%
    07:00 -13°C° 0 mm 1 m/s 760 mmHg 95%
    08:00 -12°C° 0 mm 1 m/s 759 mmHg 94%
    09:00 -11°C° 0 mm 0 m/s 759 mmHg 94%
    10:00 -10°C° 0 mm 1 m/s 759 mmHg 93%
    11:00 -8°C° 0 mm 1 m/s 759 mmHg 92%
    12:00 -6°C° 0 mm 1 m/s 758 mmHg 90%
    13:00 -6°C° 0 mm 1 m/s 758 mmHg 91%
    14:00 -6°C° 0 mm 2 m/s 757 mmHg 92%
    15:00 -6°C° 0 mm 2 m/s 756 mmHg 93%
    16:00 -6°C° 0 mm 2 m/s 756 mmHg 94%
    17:00 -7°C° 0 mm 2 m/s 756 mmHg 95%
    18:00 -8°C° 0 mm 2 m/s 755 mmHg 95%
    19:00 -8°C° 0 mm 2 m/s 755 mmHg 96%
    20:00 -9°C° 0 mm 2 m/s 755 mmHg 96%
    21:00 -10°C° 0 mm 2 m/s 754 mmHg 96%
    22:00 -12°C° 0 mm 3 m/s 754 mmHg 95%
    23:00 -13°C° 0 mm 3 m/s 754 mmHg 95%
    Voir plus